Location: Unspecified
(0.0000°N, 0.0000°E)
Time: 06:08:29
(UTC+00:00)

CUTE 1.7 + AOD 2 - Pass Details

Date: 26 May 2026
Orbit: 531 x 545 km, 97.8° (Epoch: 11 June)

Event Time Altitude Azimuth Distance (km) Brightness Sun altitude
Rises 03:16:17 0° 45° (NE) 2,666 ? -37.0°
Reaches altitude 10° 03:19:23 10° 73° (ENE) 1,783 ? -36.3°
Enters shadow 03:19:51 11° 80° (E) 1,702 ? -36.2°
